Flag for Australia Weather past 2 weeks in Alice Springs, Northern Territory, Australia

Now
72 °F

Passing clouds.


Feels Like: 75 °F
Forecast: 59 / 88 °F
Wind: No wind

Location: Alice Springs Aerodrome

Current Time: Jan 28, 2015 at 1:03:47 AM

Latest Report: Jan 28, 2015 at 12:30 AM


Visibility: N/A

Pressure: 29.89 "Hg

Humidity: 65%

Dew point: 59 °F

Location of Alice SpringsLocation

Historic Weather in Alice Springs — Graph

°F

Alice Springs temperature yesterday

Maximum temperature yesterday: 81 °F (at 4:30 PM)
Minimum temperature yesterday: 72 °F (at 12:30 AM)
Average temperature yesterday: 76 °F

Past Weeks' High & Low Weather Summary

 TemperatureHumidityPressure
High106 °F (Jan 20, 1:00 PM)94% (Jan 13, 12:00 AM)30.01 "Hg (Jan 13, 12:00 AM)
Low61 °F (Jan 22, 4:30 AM)8% (Jan 20, 5:30 PM)29.71 "Hg (Jan 23, 4:30 PM)
Average83 °F38%29.86 "Hg
* Reported Jan 12 11:30 PM — Jan 27 11:30 PM, Alice Springs, Weather by CustomWeather, © 2014

Note: Actual official high and low records may vary slightly from our data, if they occured in-between our weather recording intervals... More about our weather records

Advertising

Alice Springs weather history for previous 24 hours

 ConditionsComfort  
Time TempWeatherWind HumidityBarometerVisibility
11:30 PM
Jan 27
73 °FClear.No wind53%29.89 "HgN/A
11:00 PM73 °FClear.No wind61%29.89 "HgN/A
10:30 PM73 °FPassing clouds.5 mph57%29.89 "HgN/A
10:00 PM73 °FPassing clouds.1 mph57%29.89 "HgN/A
9:30 PM75 °FPassing clouds.5 mph54%29.89 "HgN/A
9:00 PM75 °FOvercast.5 mph47%29.89 "HgN/A
8:30 PM75 °FOvercast.6 mph47%29.89 "HgN/A
8:00 PM77 °FOvercast.6 mph42%29.89 "HgN/A
7:30 PM77 °FOvercast.No wind44%29.86 "HgN/A
7:00 PM77 °FOvercast.3 mph39%29.86 "HgN/A
6:30 PM77 °FOvercast.6 mph36%29.86 "HgN/A
6:00 PM77 °FOvercast.6 mph34%29.86 "HgN/A
5:30 PM77 °FLight rain. Clear.8 mph42%29.86 "HgN/A
5:00 PM79 °FPassing clouds.9 mph34%29.86 "HgN/A
4:30 PM81 °FSunny.10 mph23%29.86 "Hg10 mi
4:00 PM79 °FBroken clouds.10 mph26%29.86 "HgN/A
3:30 PM79 °FLight rain. Partly sunny.12 mph26%29.86 "HgN/A
3:00 PM79 °FLight rain. Partly sunny.9 mph24%29.86 "HgN/A
2:30 PM79 °FSunny.7 mph26%29.89 "Hg10 mi
2:00 PM79 °FSunny.6 mph26%29.92 "Hg10 mi
1:30 PM79 °FSunny.8 mph24%29.92 "Hg10 mi
1:00 PM79 °FSunny.9 mph23%29.92 "Hg10 mi
12:30 PM79 °FSunny.10 mph24%29.92 "Hg10 mi
12:00 PM79 °FSunny.10 mph23%29.92 "Hg10 mi
11:30 AM77 °FSunny.10 mph26%29.95 "Hg10 mi
11:00 AM79 °FSunny.9 mph24%29.92 "Hg10 mi
10:30 AM77 °FSunny.10 mph26%29.95 "Hg10 mi
10:00 AM77 °FSunny.10 mph24%29.95 "Hg10 mi
9:30 AM77 °FSunny.12 mph26%29.95 "Hg10 mi
9:00 AM75 °FSunny.9 mph27%29.95 "Hg10 mi
8:30 AM75 °FSunny.7 mph29%29.95 "Hg10 mi
8:00 AM75 °FSunny.7 mph29%29.95 "Hg10 mi
7:30 AM73 °FSunny.6 mph31%29.92 "Hg10 mi
7:00 AM73 °FSunny.6 mph33%29.92 "Hg10 mi
6:30 AM72 °FSunny.6 mph38%29.89 "Hg10 mi
6:00 AM72 °FSunny.6 mph41%29.89 "Hg10 mi
5:30 AM72 °FClear.5 mph44%29.86 "HgN/A
5:00 AM72 °FPassing clouds.6 mph47%29.86 "HgN/A
4:30 AM73 °FClear.5 mph44%29.86 "HgN/A
3:30 AM72 °FPassing clouds.5 mph57%29.86 "HgN/A
3:00 AM72 °FPassing clouds.No wind57%29.86 "HgN/A
2:30 AM72 °FClear.No wind53%29.86 "HgN/A
2:00 AM72 °FPassing clouds.No wind61%29.89 "HgN/A
1:30 AM72 °FPassing clouds.No wind61%29.89 "HgN/A
Weather by CustomWeather, © 2014

See weather overviewHow to use our weather pages